Weather History for Molokai, HI

Change the Weather History Date:

Saturday, February 11, 2012

  Actual Average Record
Temperature  
Mean Temperature 70 °F -  
Max Temperature 78 °F 77 °F 82 °F (1980)
Min Temperature 63 °F 62 °F 53 °F (1987)
Cooling Degree Days 6    
Growing Degree Days 20 (Base 50)    
Moisture  
Dew Point 61 °F    
Average Humidity 69    
Maximum Humidity 78    
Minimum Humidity 54    
Precipitation  
Precipitation 0.00 in - - ()
Sea Level Pressure  
Sea Level Pressure 30.24 in    
Wind  
Wind Speed 10 mph (NE)    
Max Wind Speed 18 mph    
Max Gust Speed 28 mph    
Visibility 10 miles    
Events      
Averages and records for this station are not official NWS values.
T = Trace of Precipitation, MM = Missing Value Source: NWS Daily Summary

Daily Weather History Graph

Daily Weather History Graph

Search for Another Location

Airport:

Trip Planner

Search our weather history database for the weather conditions in past years. The results will help you decide how hot, cold, wet, or windy it might be!

Date:

Astronomy

Feb. 11, 2012 Rise Set
Actual Time 7:01 AM HST 6:24 PM HST
Civil Twilight 6:38 AM HST 6:47 PM HST
Nautical Twilight 6:12 AM HST 7:13 PM HST
Astronomical Twilight 5:45 AM HST 7:39 PM HST
Moon 10:36 PM HST (2/11) 9:33 AM HST (2/11)
Length of Visible Light 12h 08m
Length of Day
11h 23m
Waning Gibbous, 80% of the Moon is Illuminated
Feb 11
Waning Gibbous
Feb 14
Last Quarter
Feb 21
New
Feb 29
First Quarter
Mar 7
Full

Hourly Weather History & Observations

Time (HST) Temp. Dew Point Humidity Pressure Visibility Wind Dir Wind Speed Gust Speed Precip Events Conditions
12:54 AM 63.0 °F 55.0 °F 75% 30.27 in 10.0 mi ENE 5.8 mph - N/A   Clear
1:54 AM 66.0 °F 57.0 °F 73% 30.26 in 10.0 mi NNE 5.8 mph - N/A   Clear
2:54 AM 68.0 °F 60.1 °F 76% 30.24 in 10.0 mi NNE 4.6 mph - N/A   Clear
3:54 AM 64.9 °F 57.9 °F 78% 30.24 in 10.0 mi ENE 8.1 mph - N/A   Clear
4:54 AM 69.1 °F 61.0 °F 75% 30.23 in 10.0 mi NE 10.4 mph 17.3 mph N/A   Clear
5:54 AM 68.0 °F 60.1 °F 76% 30.23 in 10.0 mi NE 9.2 mph - N/A   Clear
6:54 AM 69.1 °F 62.1 °F 78% 30.25 in 10.0 mi ENE 11.5 mph - N/A   Clear
7:54 AM 71.1 °F 62.1 °F 73% 30.26 in 10.0 mi NE 11.5 mph 21.9 mph N/A   Partly Cloudy
8:54 AM 73.0 °F 62.1 °F 68% 30.27 in 10.0 mi NE 13.8 mph 24.2 mph N/A   Partly Cloudy
9:54 AM 75.0 °F 63.0 °F 66% 30.29 in 10.0 mi NE 16.1 mph 25.3 mph N/A   Partly Cloudy
10:54 AM 77.0 °F 61.0 °F 58% 30.28 in 10.0 mi NE 13.8 mph 23.0 mph N/A   Partly Cloudy
11:54 AM 78.1 °F 60.1 °F 54% 30.25 in 10.0 mi NE 18.4 mph 25.3 mph N/A   Partly Cloudy
12:54 PM 78.1 °F 61.0 °F 56% 30.22 in 10.0 mi NE 16.1 mph 25.3 mph N/A   Clear
1:54 PM 77.0 °F 61.0 °F 58% 30.20 in 10.0 mi NE 12.7 mph 20.7 mph N/A   Partly Cloudy
2:54 PM 75.9 °F 61.0 °F 60% 30.18 in 10.0 mi NE 13.8 mph 23.0 mph N/A   Partly Cloudy
3:54 PM 75.0 °F 62.1 °F 64% 30.18 in 10.0 mi NE 17.3 mph 26.5 mph N/A   Scattered Clouds
4:54 PM 73.9 °F 63.0 °F 68% 30.19 in 10.0 mi NE 15.0 mph 27.6 mph N/A   Partly Cloudy
5:54 PM 73.0 °F 64.0 °F 73% 30.21 in 10.0 mi NE 15.0 mph 24.2 mph N/A   Scattered Clouds
6:54 PM 71.1 °F 62.1 °F 73% 30.22 in 10.0 mi NE 16.1 mph 26.5 mph N/A   Partly Cloudy
7:54 PM 70.0 °F 62.1 °F 76% 30.25 in 10.0 mi East 6.9 mph - N/A   Clear
8:54 PM 71.1 °F 62.1 °F 73% 30.25 in 10.0 mi NE 13.8 mph 19.6 mph N/A   Clear
9:54 PM 71.1 °F 62.1 °F 73% 30.25 in 10.0 mi NE 10.4 mph 19.6 mph N/A   Clear
10:54 PM 69.1 °F 62.1 °F 78% 30.25 in 10.0 mi ENE 8.1 mph - N/A   Clear
11:54 PM 70.0 °F 60.1 °F 71% 30.25 in 10.0 mi NE 4.6 mph - N/A   Clear